Location: St Andrew
(49.4460°N, 2.5750°W)
Time: 01:05:39
(UTC+01:00)

Daily predictions for brighter satellites

Satellite Brightness Start Highest point End
(mag) Time Altitude Azimuth Time Altitude Azimuth Time Altitude Azimuth
Cosmos 2195 Rocket 4.5 00:03:13 25° S 00:07:02 83° E 00:13:21 10° N
NOSS 3-2 (C) 3.8 00:05:15 26° S 00:08:27 48° ESE 00:14:51 10° NE
Lacrosse 5 rocket 3.0 00:09:26 10° NW 00:13:17 36° NNE 00:17:20 10° E
CZ-2C R/B 4.5 00:09:38 10° NE 00:13:21 18° E 00:15:36 14° ESE
COSMOS 2487 3.0 00:11:56 26° SW 00:13:44 56° WNW 00:17:19 10° NNE
Meteor 1-24 Rocket 3.9 00:13:37 28° S 00:16:49 71° E 00:22:41 10° NNE
Cosmos 1627 Rocket 4.4 00:13:13 25° S 00:16:59 85° W 00:23:10 10° N
Cosmos 1707 3.0 00:15:52 32° SSW 00:17:31 65° WNW 00:21:27 10° N
CZ-4B R/B 1.6 00:29:40 47° SSE 00:30:38 79° ENE 00:34:22 10° N
Cosmos 1378 3.2 00:30:39 47° SSE 00:31:34 67° E 00:35:20 10° NNE
Cosmos 2322 Rocket 4.4 00:28:46 10° N 00:32:59 21° NE 00:37:10 10° E
Cosmos 841 Rocket 3.6 00:28:34 10° NNW 00:33:51 75° ENE 00:36:30 30° SE
Cosmos 2228 Rocket 3.0 00:29:29 10° N 00:33:55 87° E 00:35:29 40° SSE
Helios 1A Rocket 3.6 00:34:20 10° NNE 00:38:11 40° E 00:39:08 34° SE
Cosmos 1689 Rocket 2.1 00:39:25 66° S 00:39:49 85° WSW 00:43:05 10° NNW
Cosmos 1867 3.8 00:38:18 33° S 00:40:20 50° ESE 00:45:39 10° NE
ATLAS 3B R/B 4.3 00:34:17 10° W 00:41:19 38° NNW 00:48:05 10° NE
Cosmos 2369 3.9 00:39:55 10° NW 00:45:29 60° WSW 00:47:57 33° S
H-2A R/B 4.4 00:45:23 10° WSW 00:47:04 12° W 00:48:47 10° WNW
CZ-4C R/B 3.5 00:47:03 37° WSW 00:47:22 39° W 00:50:26 10° NNW
Cosmos 1553 Rocket 4.2 00:43:51 10° NNW 00:50:08 65° W 00:53:31 29° SSW
NOSS 3-2 (A) 3.5 00:45:53 17° SW 00:50:57 87° NW 00:57:52 10° NE
ISS -2.9 00:48:38 10° WNW 00:51:53 61° N 00:55:08 10° E
Cosmos 1408 Rocket 4.1 00:50:49 30° SW 00:52:48 55° WNW 00:57:14 10° N
Aureole 1 Rocket 4.0 00:51:34 10° NNW 00:55:59 54° ENE 00:59:36 21° SE
ALOS 2 3.0 00:56:34 36° SSW 00:57:59 51° W 01:02:17 10° NNW
Cosmos 2151 4.3 00:58:36 24° ESE 00:59:56 28° E 01:03:35 10° NNE
Meteor 1-21 Rocket 4.3 00:58:51 32° SSE 01:01:29 66° E 01:07:05 10° NNE
Cosmos 1980 Rocket 2.7 00:56:22 10° NNW 01:01:55 55° NE 01:06:04 18° SE
Cosmos 1151 Rocket 3.2 00:58:16 10° N 01:02:31 61° ENE 01:04:02 36° SE
Cosmos 2278 4.5 01:01:54 10° NW 01:07:03 37° WSW 01:09:07 28° SSW
Genesis I 3.7 01:04:19 10° NW 01:08:06 42° WSW 01:08:27 41° SW
CZ-2C R/B 3.7 01:11:50 22° SE 01:15:19 56° ENE 01:20:59 10° N
Lacrosse 5 1.8 01:11:13 10° WNW 01:16:14 65° SW 01:18:34 31° SSE
Cosmos 2315 Rocket 4.0 01:10:15 10° N 01:16:37 81° E 01:20:04 29° SSE
H-2A R/B 3.1 01:13:28 10° N 01:17:08 43° WNW 01:18:37 29° WSW
Cosmos 2266 Rocket 4.0 01:16:07 30° S 01:19:33 87° W 01:26:00 10° N
Landsat 5 4.3 01:19:07 31° SW 01:20:02 35° W 01:23:49 10° NNW
Cosmos 1697 Rocket 2.7 01:15:32 10° NNW 01:21:13 75° WSW 01:23:59 31° SSE
Cosmos 1743 Rocket 4.0 01:20:06 33° SW 01:21:50 57° WNW 01:26:16 10° N
Meteor 2-2 Rocket 4.3 01:17:15 10° NNW 01:22:58 72° W 01:25:43 32° S
Meteor 2-20 4.5 01:22:33 30° SSW 01:25:49 76° W 01:32:03 10° N
Cosmos 2082 Rocket 2.1 01:25:41 31° SSW 01:28:29 84° ESE 01:34:12 10° NNE
Cosmos 540 Rocket 3.4 01:24:26 10° NNW 01:29:40 84° ENE 01:32:21 29° SSE
Cosmos 405 Rocket 4.1 01:28:38 22° WSW 01:30:07 29° WNW 01:33:27 10° N
Cosmos 724 4.2 01:27:43 30° SSW 01:30:39 75° SE 01:36:35 10° NE
Cosmos 2344 3.7 01:26:24 24° SSW 01:31:33 75° SE 01:40:44 10° NE
Cosmos 1833 Rocket 2.7 01:29:01 33° S 01:31:36 71° ESE 01:37:14 10° NNE
Cosmos 1908 3.3 01:28:56 10° NNW 01:32:45 62° W 01:33:37 47° SSW
Abrixas 3.9 01:34:23 28° ESE 01:34:23 28° ESE 01:36:04 10° E
Cosmos 1763 Rocket 4.4 01:28:43 10° NW 01:33:30 35° WSW 01:35:14 28° SW
Cosmos 1500 Rocket 3.9 01:36:52 34° SW 01:38:29 54° WNW 01:42:44 10° N
Cosmos 1300 3.3 01:36:06 10° N 01:39:51 49° ENE 01:41:22 31° SE
Cosmos 1656 4.2 01:35:37 10° NW 01:40:59 43° WSW 01:43:06 30° SSW
MOS 1-B Rocket 4.3 01:39:07 27° S 01:43:31 72° WSW 01:49:57 10° NNW
SL-23 DEB 3.9 01:40:32 10° W 01:44:03 59° N 01:47:10 10° E
CENTAUR R/B 2.8 01:42:22 30° S 01:45:25 55° ESE 01:52:12 10° NE
PSLV R/B 3.9 01:47:43 40° S 01:49:11 77° WSW 01:53:22 10° NNW
Cosmos 1441 Rocket 3.4 01:49:23 41° SW 01:50:36 67° WNW 01:54:32 10° N
Lacrosse 5 rocket 1.3 01:48:39 10° WNW 01:52:55 81° SW 01:56:40 14° SE
CZ-4C R/B 3.3 01:47:32 10° WSW 01:52:56 46° NW 01:59:05 10° NE
Cosmos 1726 2.6 01:50:36 10° N 01:54:14 53° ENE 01:55:43 31° SE
CZ-2C R/B 2.7 01:48:43 10° NNE 01:54:18 79° WNW 01:57:07 30° SSW
Cosmos 2360 4.2 01:50:38 10° NNW 01:56:23 87° WSW 02:00:12 22° SSE
Cosmos 1437 Rocket 3.4 01:53:54 10° NNW 01:57:36 40° W 01:58:26 35° SW
NOSS 3-2 (C) 4.4 01:53:13 10° WSW 01:59:23 51° NW 02:06:11 10° NE
Cosmos 405 3.4 01:58:49 10° NNW 02:02:19 50° W 02:03:01 42° SW
Cosmos 332 Rocket 3.8 02:00:28 10° NNW 02:05:15 66° WSW 02:07:24 32° S
ATLAS CENTAUR R/B 4.0 02:02:01 10° NNW 02:06:08 26° NNE 02:10:02 10° E
Cosmos 1455 4.1 02:03:26 10° NNE 02:06:40 26° ENE 02:09:38 11° SE
SL-16 R/B 2.5 02:01:54 10° NNW 02:07:36 68° ENE 02:13:15 10° SE
Cosmos 1674 3.5 02:09:32 30° WSW 02:10:44 39° WNW 02:14:19 10° N
Cosmos 2058 2.9 02:13:11 36° SSW 02:14:49 81° W 02:19:00 10° N
Cosmos 1437 2.8 02:15:33 47° S 02:16:23 80° E 02:19:44 10° NNE
Cosmos 2322 Rocket 2.2 02:12:14 10° NNW 02:17:55 84° ENE 02:22:54 13° SSE
Meteor 1-27 4.3 02:12:54 10° NNW 02:18:45 70° W 02:22:09 26° S
Landsat 4 3.7 02:17:59 30° SSE 02:19:45 78° ENE 02:23:30 10° NNW
Cosmos 1626 4.2 02:18:33 13° SE 02:20:49 22° E 02:23:44 10° NE
ASTEX 1 3.5 02:17:13 10° N 02:22:11 71° W 02:24:42 29° SSW
Cosmos 968 Rocket 3.8 02:19:47 27° S 02:22:26 56° ESE 02:27:30 10° NNE
PSLV R/B 4.0 02:19:27 10° NNE 02:24:00 57° E 02:26:21 26° S
ISS -3.2 02:25:09 10° WNW 02:28:19 49° SSW 02:28:43 45° S
Iridium 2 4.2 02:27:51 32° SW 02:29:09 48° W 02:32:53 10° N
Cosmos 1805 Rocket 3.8 02:27:56 30° SW 02:29:57 58° WNW 02:34:23 10° N
SL-08 R/B 4.0 02:27:13 12° SE 02:31:39 56° ENE 02:36:30 10° N
Cosmos 1633 Rocket 3.0 02:33:59 30° SSW 02:36:10 80° W 02:40:38 10° N
Cosmos 2151 4.2 02:35:12 21° WSW 02:37:11 31° WNW 02:41:00 10° N
Meteor 2-10 4.1 02:33:47 10° NNW 02:39:03 88° ENE 02:43:10 18° SSE
Cosmos 1707 Rocket 4.4 02:36:09 10° NNW 02:40:06 34° W 02:41:44 25° SW
Cosmos 2242 Rocket 3.8 02:36:11 10° NNW 02:40:31 56° W 02:42:37 28° SSW
COS B Rocket 3.7 02:39:30 10° NNW 02:41:09 22° WNW 02:41:09 22° WNW
NPP 4.2 02:40:19 10° NNE 02:45:35 51° E 02:49:33 17° S
Cosmos 1980 Rocket 3.2 02:40:53 10° NW 02:45:37 28° WSW 02:47:48 22° SW
Cosmos 2360 Rocket 2.8 02:41:08 10° NNW 02:46:42 57° NE 02:52:15 10° SE
Cosmos 1666 Rocket 3.9 02:45:22 26° SW 02:47:30 51° WNW 02:51:45 10° N
SL-14 R/B 3.6 02:49:04 28° SW 02:50:46 51° WNW 02:54:33 10° N
Cosmos 371 Rocket 4.0 02:50:48 10° NW 02:55:13 36° WSW 02:57:25 23° SSW
CZ-2C R/B 4.4 02:52:54 19° SW 02:55:31 27° W 03:00:22 10° NW
Cosmos 1386 Rocket 4.5 02:51:17 21° SSW 02:55:38 82° W 03:01:47 10° N
JB-3 4.3 02:51:53 10° NNE 02:55:55 88° WNW 02:58:06 25° SSW
Cosmos 1869 3.4 02:52:12 10° N 02:56:12 76° E 02:59:12 17° SSE
Cosmos 923 Rocket 3.9 02:51:17 10° NNW 02:56:34 76° WSW 03:01:20 12° SSE
Cosmos 1470 Rocket 3.5 02:55:34 23° S 02:58:18 88° E 03:02:43 10° N
Lacrosse 5 3.7 02:55:43 10° W 02:57:41 14° WSW 02:57:41 14° WSW
Cosmos 1271 Rocket 2.7 02:54:44 10° NNW 02:58:30 64° W 03:00:33 25° S
Meteor 1-4 Rocket 2.7 02:55:31 10° NNW 02:59:16 62° W 03:01:21 24° S
USA 215 4.0 02:54:19 10° ENE 03:00:23 39° SE 03:04:48 18° SSW
IRAS Rocket 4.2 02:55:27 10° NNE 03:00:59 87° ESE 03:04:55 20° SSW
Cosmos 1703 3.3 03:00:03 26° SSW 03:02:10 66° WNW 03:06:07 10° N
Cosmos 1933 Rocket 3.5 02:59:51 23° S 03:02:35 87° W 03:07:02 10° N
Cosmos 304 Rocket 3.8 02:58:01 10° NNW 03:02:54 87° ENE 03:07:44 10° SSE
Cosmos 773 Rocket 4.1 02:59:26 10° NNW 03:04:26 53° WSW 03:08:16 17° S
Cosmos 1680 Rocket 3.4 02:59:27 10° NNW 03:04:42 82° WSW 03:09:55 10° SSE
ERS-2 2.1 03:01:12 10° NNE 03:04:56 81° ESE 03:07:08 23° S
BREEZE-M DEB (TANK) 4.2 02:54:03 10° W 03:07:35 68° S 03:11:42 10° E
Cosmos 1777 Rocket 4.0 03:04:38 21° SSW 03:08:17 85° ESE 03:13:37 10° NNE
Cosmos 2322 3.9 03:03:02 10° NNW 03:08:49 79° ENE 03:14:32 10° SSE
Abrixas 2.4 03:06:25 13° W 03:09:05 74° S 03:12:10 10° E
Cosmos 1745 Rocket 4.5 03:06:10 19° SW 03:10:37 50° WNW 03:16:46 10° N
Sich 1 4.1 03:10:21 19° SW 03:12:55 34° WNW 03:17:00 10° N
Cosmos 2082 Rocket 4.0 03:08:48 10° W 03:13:18 24° NW 03:17:51 10° NNE
Resurs 1-4 Rocket 3.9 03:10:18 10° NE 03:14:44 26° E 03:19:08 10° SSE
Cosmos 1833 Rocket 4.3 03:11:21 10° W 03:16:05 27° NW 03:20:49 10° NNE
CBERS-1 4.1 03:11:56 10° NNE 03:17:04 78° ESE 03:21:15 16° S
ATLAS 5 CENTAUR R/B 2.5 03:14:17 18° S 03:17:44 47° ESE 03:22:49 10° NE
EO 1 Del DPAF 4.3 03:16:58 10° SE 03:20:44 48° ENE 03:24:32 10° N
Cosmos 1709 Rocket 4.0 03:16:36 16° SSW 03:21:50 83° W 03:28:06 10° N
SL-16 R/B 3.2 03:16:12 10° SE 03:22:20 60° ENE 03:28:30 10° N
IRS-P3 4.2 03:17:10 10° NNE 03:22:30 72° WNW 03:26:41 17° SSW
ARIANE 5 R/B 3.6 03:19:01 10° NNE 03:23:47 39° E 03:28:29 10° SSE
Cosmos 1346 3.6 03:24:13 17° S 03:26:23 56° E 03:29:25 10° NNE
AQUA 3.8 03:23:41 10° NNE 03:28:29 84° WNW 03:32:22 15° SSW
Cosmos 1726 4.2 03:27:23 10° NW 03:29:10 13° W 03:30:23 12° WSW
Cosmos 2333 Rocket 4.3 03:25:54 10° NNW 03:30:57 31° NE 03:35:59 10° ESE
Lacrosse 5 rocket 3.0 03:28:50 10° W 03:31:43 17° SW 03:32:16 17° SW
Cosmos 1862 Rocket 4.4 03:29:39 10° NNW 03:33:44 35° W 03:36:44 16° SSW
Cosmos 1933 3.3 03:32:01 10° NNW 03:36:04 76° W 03:40:04 10° S
CENTAUR R/B 3.5 03:30:05 10° WSW 03:36:18 47° NNW 03:43:19 10° NE
COSMOS 2428 3.0 03:36:14 10° NNW 03:41:57 74° ENE 03:47:37 10° SE
Cosmos 1455 3.3 03:39:09 10° NNW 03:42:23 27° W 03:44:39 16° SW
Okean O Rocket 4.0 03:40:36 10° NE 03:43:47 19° E 03:46:57 10° SE
Cosmos 1833 4.4 03:39:42 13° SSW 03:44:53 73° ESE 03:50:37 10° NNE
ATLAS CENTAUR R/B 1.5 03:41:00 10° NW 03:45:49 77° SW 03:50:13 10° SSE
ADEOS 3.6 03:40:38 10° NNE 03:45:53 85° WNW 03:50:54 11° SSW
USA 161 1.7 03:49:42 17° SSW 03:51:08 35° W 03:53:23 10° NNW
SL-16 R/B 3.4 03:46:52 10° NW 03:51:12 23° WSW 03:55:02 12° SSW
Cosmos 2237 Rocket 3.9 03:49:09 10° NNW 03:54:28 38° NE 03:59:45 10° ESE
Cosmos 1626 3.2 03:53:17 14° SW 03:56:04 32° WNW 03:59:30 10° N
SL-23 DEB 3.5 03:53:39 10° WNW 03:56:44 56° SSW 04:00:27 10° SE
Cosmos 2292 Rocket 3.7 03:54:55 14° SW 03:57:36 44° WNW 04:01:36 10° N
Cosmos 2322 Rocket 3.7 03:57:37 10° WNW 04:01:13 18° W 04:04:39 11° SW
Cosmos 1869 Rocket 3.6 03:59:33 10° SSW 04:03:57 76° W 04:08:26 10° N
Cosmos 2237 4.2 03:58:34 10° NNW 04:04:20 77° WSW 04:10:02 10° SSE
Cosmos 2221 Rocket 4.1 04:00:21 10° NNW 04:04:38 43° W 04:08:56 10° SSW
Cosmos 2219 Rocket 2.8 04:01:51 10° NNW 04:07:26 61° ENE 04:12:57 10° SE
USA 229 DEB 4.2 04:02:10 10° SSW 04:08:56 58° ESE 04:15:48 10° NE
USA 229 4.2 04:02:17 10° SSW 04:09:03 58° ESE 04:15:54 10° NE
Cosmos 1892 4.3 04:06:53 10° SSE 04:10:24 33° E 04:13:55 10° NNE
Cosmos 389 Rocket 2.9 04:07:43 10° N 04:11:26 72° ENE 04:15:07 10° SSE
CZ-2D R/B 2.4 04:06:26 10° NNE 04:11:42 71° ESE 04:16:59 10° S
NOSS 0 Rocket 4.3 04:14:15 10° NNW 04:20:25 72° ENE 04:26:33 10° SE
Meteor 2-3 Rocket 4.0 04:17:32 10° S 04:23:19 80° E 04:29:10 10° NNE
Meteor 2-10 Rocket 3.8 04:18:41 10° N 04:23:45 74° ENE 04:28:55 10° SSE
SL-16 R/B 4.4 04:20:10 10° NNW 04:25:16 32° NE 04:30:20 10° ESE
UNKNOWN OBJECT B 3.0 04:23:15 10° NNE 04:27:06 75° ESE 04:30:59 10° S
Nadezhda 3 Rocket 4.0 04:23:50 10° N 04:30:02 86° W 04:36:11 10° S
Cosmos 2360 Rocket 3.1 04:25:41 10° NW 04:30:21 27° WSW 04:35:01 10° SSW
